When you browse on this site, cookies collect data to enhance your experience and personalize the content and advertising you see.
Visit our Privacy Policy to learn more. By continuing to use the site, you agree to this use of cookies and data.
  • In Latvia
  • List of Countries
  • For 7 days
  • Water Temperature
  • Weather Map
  • Weather Widgets
  • user-avatar
    Login

    Hourly Weather Swansea

    Today, 17 September, Tuesday

    Time Temperature Precipitation Wind Pressure Humidity
    00:00 +13°C° 0 mm 3 mps 767 mmHg 89%
    01:00 +12°C° 0 mm 3 mps 767 mmHg 88%
    02:00 +12°C° 0 mm 3 mps 767 mmHg 86%
    03:00 +11°C° 0 mm 3 mps 766 mmHg 85%
    04:00 +12°C° 0 mm 2 mps 767 mmHg 86%
    05:00 +10°C° 0 mm 2 mps 767 mmHg 87%
    06:00 +9°C° 0 mm 2 mps 767 mmHg 89%
    07:00 +12°C° 0 mm 2 mps 768 mmHg 85%
    08:00 +13°C° 0 mm 2 mps 768 mmHg 81%
    09:00 +14°C° 0 mm 2 mps 768 mmHg 77%
    10:00 +15°C° 0 mm 2 mps 768 mmHg 73%
    11:00 +16°C° 0 mm 2 mps 768 mmHg 69%
    12:00 +17°C° 0 mm 2 mps 768 mmHg 65%
    13:00 +18°C° 0 mm 2 mps 768 mmHg 65%
    14:00 +18°C° 0 mm 2 mps 768 mmHg 65%
    15:00 +18°C° 0 mm 2 mps 768 mmHg 66%
    16:00 +17°C° 0 mm 2 mps 768 mmHg 72%
    17:00 +16°C° 0 mm 2 mps 768 mmHg 78%
    18:00 +13°C° 0 mm 3 mps 768 mmHg 85%
    19:00 +12°C° 0 mm 3 mps 768 mmHg 86%
    20:00 +11°C° 0 mm 3 mps 769 mmHg 87%
    21:00 +10°C° 0 mm 4 mps 769 mmHg 88%
    22:00 +10°C° 0 mm 3 mps 769 mmHg 86%
    23:00 +9°C° 0 mm 3 mps 770 mmHg 84%

    Tomorrow, 18 September, Wednesday

    Time Temperature Precipitation Wind Pressure Humidity
    00:00 +9°C° 0 mm 3 mps 770 mmHg 82%
    01:00 +8°C° 0 mm 3 mps 770 mmHg 84%
    02:00 +8°C° 0 mm 3 mps 770 mmHg 85%
    03:00 +8°C° 0 mm 3 mps 770 mmHg 86%
    04:00 +8°C° 0 mm 3 mps 770 mmHg 87%
    05:00 +8°C° 0 mm 3 mps 770 mmHg 88%
    06:00 +7°C° 0 mm 3 mps 771 mmHg 88%
    07:00 +9°C° 0 mm 2 mps 771 mmHg 83%
    08:00 +12°C° 0 mm 2 mps 771 mmHg 79%
    09:00 +14°C° 0 mm 2 mps 771 mmHg 74%
    10:00 +15°C° 0 mm 2 mps 771 mmHg 70%
    11:00 +16°C° 0 mm 2 mps 771 mmHg 67%
    12:00 +17°C° 0 mm 2 mps 771 mmHg 64%
    13:00 +17°C° 0 mm 2 mps 771 mmHg 64%
    14:00 +18°C° 0 mm 2 mps 771 mmHg 65%
    15:00 +19°C° 0 mm 1 mps 771 mmHg 65%
    16:00 +18°C° 0 mm 1 mps 771 mmHg 72%
    17:00 +16°C° 0 mm 1 mps 771 mmHg 78%
    18:00 +14°C° 0 mm 1 mps 770 mmHg 84%
    19:00 +13°C° 0 mm 1 mps 771 mmHg 85%
    20:00 +13°C° 0 mm 1 mps 771 mmHg 86%
    21:00 +12°C° 0 mm 1 mps 772 mmHg 86%
    22:00 +12°C° 0 mm 1 mps 772 mmHg 87%
    23:00 +11°C° 0 mm 1 mps 771 mmHg 87%

    Day after tomorrow, 19 September, Thursday

    Time Temperature Precipitation Wind Pressure Humidity
    00:00 +11°C° 0 mm 1 mps 771 mmHg 87%
    01:00 +11°C° 0 mm 1 mps 771 mmHg 87%
    02:00 +11°C° 0 mm 1 mps 771 mmHg 87%
    03:00 +11°C° 0 mm 1 mps 771 mmHg 87%
    04:00 +11°C° 0 mm 1 mps 771 mmHg 87%
    05:00 +11°C° 0 mm 1 mps 771 mmHg 87%
    06:00 +11°C° 0 mm 1 mps 771 mmHg 87%
    07:00 +12°C° 0 mm 1 mps 772 mmHg 82%
    08:00 +14°C° 0 mm 2 mps 772 mmHg 78%
    09:00 +16°C° 0 mm 2 mps 772 mmHg 73%
    10:00 +17°C° 0 mm 2 mps 772 mmHg 71%
    11:00 +18°C° 0 mm 2 mps 772 mmHg 68%
    12:00 +19°C° 0 mm 2 mps 772 mmHg 66%
    13:00 +19°C° 0 mm 2 mps 772 mmHg 66%
    14:00 +20°C° 0 mm 2 mps 771 mmHg 67%
    15:00 +20°C° 0 mm 2 mps 771 mmHg 67%
    16:00 +19°C° 0 mm 1 mps 771 mmHg 73%
    17:00 +18°C° 0 mm 1 mps 771 mmHg 79%
    18:00 +16°C° 0 mm 1 mps 770 mmHg 84%
    19:00 +15°C° 0 mm 1 mps 771 mmHg 85%
    20:00 +14°C° 0 mm 1 mps 771 mmHg 87%
    21:00 +13°C° 0 mm 2 mps 771 mmHg 88%
    22:00 +13°C° 0 mm 2 mps 770 mmHg 87%
    23:00 +13°C° 0 mm 2 mps 770 mmHg 87%

    20 September, Friday

    Time Temperature Precipitation Wind Pressure Humidity
    00:00 +13°C° 0 mm 2 mps 770 mmHg 87%
    01:00 +12°C° 0 mm 3 mps 770 mmHg 87%
    02:00 +11°C° 0 mm 3 mps 769 mmHg 88%
    03:00 +11°C° 0 mm 3 mps 769 mmHg 88%
    04:00 +11°C° 0 mm 4 mps 769 mmHg 89%
    05:00 +11°C° 0 mm 4 mps 768 mmHg 89%
    06:00 +10°C° 0 mm 4 mps 768 mmHg 89%
    07:00 +12°C° 0 mm 5 mps 768 mmHg 86%
    08:00 +13°C° 0 mm 6 mps 768 mmHg 82%
    09:00 +15°C° 0 mm 6 mps 767 mmHg 78%
    10:00 +16°C° 0 mm 7 mps 767 mmHg 75%
    11:00 +17°C° 0 mm 7 mps 767 mmHg 71%
    12:00 +17°C° 0 mm 7 mps 766 mmHg 67%
    13:00 +18°C° 0 mm 7 mps 765 mmHg 66%
    14:00 +18°C° 0 mm 7 mps 765 mmHg 66%
    15:00 +18°C° 0 mm 7 mps 764 mmHg 65%
    16:00 +17°C° 0 mm 7 mps 763 mmHg 66%
    17:00 +16°C° 0 mm 7 mps 763 mmHg 67%
    18:00 +15°C° 0 mm 7 mps 762 mmHg 67%
    19:00 +13°C° 0 mm 8 mps 762 mmHg 64%
    20:00 +13°C° 0 mm 8 mps 761 mmHg 61%
    21:00 +12°C° 0 mm 8 mps 761 mmHg 58%
    22:00 +12°C° 0 mm 8 mps 760 mmHg 61%
    23:00 +12°C° 0 mm 8 mps 760 mmHg 63%

    21 September, Saturday

    Time Temperature Precipitation Wind Pressure Humidity
    00:00 +12°C° 0 mm 7 mps 759 mmHg 66%
    01:00 +11°C° 0 mm 7 mps 759 mmHg 69%
    02:00 +11°C° 0 mm 7 mps 758 mmHg 71%
    03:00 +11°C° 0 mm 7 mps 758 mmHg 74%
    04:00 +11°C° 0 mm 7 mps 757 mmHg 76%
    05:00 +10°C° 0 mm 7 mps 757 mmHg 78%
    06:00 +10°C° 0 mm 6 mps 756 mmHg 79%
    07:00 +12°C° 0 mm 7 mps 756 mmHg 78%
    08:00 +14°C° 0 mm 7 mps 756 mmHg 76%
    09:00 +15°C° 0 mm 7 mps 755 mmHg 74%
    10:00 +17°C° 0 mm 7 mps 755 mmHg 72%
    11:00 +18°C° 0 mm 7 mps 755 mmHg 71%
    12:00 +20°C° 0 mm 7 mps 755 mmHg 70%
    13:00 +20°C° 0 mm 7 mps 754 mmHg 72%
    14:00 +21°C° 0 mm 6 mps 754 mmHg 74%
    15:00 +21°C° 0 mm 5 mps 753 mmHg 77%
    16:00 +20°C° 0.1 mm 5 mps 753 mmHg 82%
    17:00 +19°C° 0.1 mm 4 mps 753 mmHg 87%
    18:00 +18°C° 0.1 mm 4 mps 753 mmHg 93%
    19:00 +17°C° 0 mm 4 mps 753 mmHg 94%
    20:00 +16°C° 0 mm 5 mps 753 mmHg 95%
    21:00 +15°C° 0 mm 5 mps 753 mmHg 96%
    22:00 +16°C° 0.1 mm 6 mps 753 mmHg 96%
    23:00 +16°C° 0.1 mm 6 mps 752 mmHg 95%

    22 September, Sunday

    Time Temperature Precipitation Wind Pressure Humidity
    00:00 +16°C° 0.1 mm 6 mps 752 mmHg 95%
    01:00 +16°C° 0.8 mm 6 mps 752 mmHg 96%
    02:00 +16°C° 0.8 mm 6 mps 752 mmHg 96%
    03:00 +16°C° 0.8 mm 6 mps 752 mmHg 96%
    04:00 +15°C° 0.4 mm 5 mps 752 mmHg 96%
    05:00 +14°C° 0.4 mm 5 mps 753 mmHg 95%
    06:00 +13°C° 0.4 mm 4 mps 753 mmHg 95%
    07:00 +14°C° 0.2 mm 5 mps 753 mmHg 92%
    08:00 +15°C° 0.2 mm 6 mps 754 mmHg 90%
    09:00 +15°C° 0.2 mm 8 mps 754 mmHg 88%
    10:00 +16°C° 0.2 mm 8 mps 754 mmHg 85%
    11:00 +16°C° 0.2 mm 8 mps 755 mmHg 82%
    12:00 +16°C° 0.2 mm 8 mps 755 mmHg 78%
    13:00 +16°C° 0.2 mm 8 mps 755 mmHg 78%
    14:00 +16°C° 0.2 mm 9 mps 755 mmHg 77%
    15:00 +16°C° 0.2 mm 9 mps 755 mmHg 76%
    16:00 +15°C° 0.1 mm 8 mps 756 mmHg 80%
    17:00 +15°C° 0.1 mm 7 mps 756 mmHg 84%
    18:00 +14°C° 0.1 mm 7 mps 757 mmHg 87%
    19:00 +13°C° 0.1 mm 6 mps 758 mmHg 88%
    20:00 +13°C° 0.1 mm 6 mps 758 mmHg 89%
    21:00 +11°C° 0.1 mm 6 mps 759 mmHg 90%
    22:00 +11°C° 0.1 mm 6 mps 759 mmHg 90%
    23:00 +12°C° 0.1 mm 5 mps 760 mmHg 91%
    Show more